Location: Rumah Dana
(3.1167°N, 113.0167°E)
Time: 03:45:18
(UTC+00:00)

SPELTRA - Pass Details

Date: 20 January 2026
Orbit: 578 x 26548 km, 7.8° (Epoch: 11 February)

Event Time Altitude Azimuth Distance (km) Brightness Sun altitude
Rises 10:49:04 0° 249° (WSW) 3,525 9.9 -3.4°
Reaches altitude 10° 10:52:08 10° 235° (SW) 2,057 6.9 -4.2°
Maximum altitude 10:55:24 27° 173° (S) 1,102 4.0 -4.9°
Drops below altitude 10° 10:58:52 10° 110° (ESE) 2,180 4.9 -5.7°
Enters shadow 11:01:13 - 100° (E) 3,301 5.7 -6.3°
